Weather WX

World > North America > United States > New Jersey

Branchville, New Jersey Regional Weather

Lat: 41.15N, Lon: 74.75W
Wx Zone: NJZ001
Warning FLW WEATHER ALERT - FLASH FLOOD WATCH (More Info. Click Here) Warning
Feedback

Branchville, NJ Regional Weather

Expires:201907180300;;228787
ASUS41 KOKX 180214
RWROKX

Regional Weather Roundup
National Weather Service New York NY
1000 PM EDT WED JUL 17 2019

Note: "FAIR" indicates few or no clouds below 12,000 feet with no
significant weather and/or obstructions to visibility.


NJZ001-105-106-008-010-013-015-019>022-104-180300-
New Jersey
  
CITY           SKY/WX    TMP DP  RH WIND       PRES   REMARKS
Newark/Liberty TSTM      75  74  96 VRB3      29.93R FOG              
Teterboro      LGT RAIN  76  72  87 VRB3      29.91R                  
Caldwell       TSTM      76  74  93 NW8       29.94R VSB 1/2          
Somerville     LGT RAIN  74  73  97 S3        29.89F FOG              
Linden         HVY RAIN  75  73  93 CALM      29.93R                  
Perth Amboy      N/A     73 N/A N/A S10         N/A                   
Sussex         RAIN      73  71  93 E3        29.91F FOG              
Andover          N/A     73  72  96 NE3       29.91F                  
Trenton        RAIN      74  72  93 SW5       29.90F FOG              
Millville      MOCLDY    74  73  97 CALM      29.90F                  
Atlantic City  LGT RAIN  78  70  76 W8        29.92R                  
Wrightstown    LGT RAIN  74  73  96 NW7       29.90                   
Toms River     RAIN      74  32  21 SW7       29.93R                  
Belmar         RAIN      75  72  90 W12       29.93R                  
$$
 

SKY/WX - Weather  TMP - Temperature  DP - Dew Point  RH - Relative Humidity
WIND - Wind Direction/Speed PRES - Barometric Pressure VSB - Visibility
WCI - Wind Chill Index E13G22 Wind - East Wind 13 mph/Gusts of 22 mph